This is the latest recevied weather packets stored in our database for station/object HUGOCO. If no packets are shown the sender has not sent any weather packets the latest 10 day(s).
| Time | Temp. | Humidity | Pressure | Rain* | Wind** | Luminosity | Snow |
|---|---|---|---|---|---|---|---|
| 1777191990 | 0.56° C | 93% | 1016.3 hPa | 0 mm | - | - | - |
| 1777190190 | 0.56° C | 92% | 1016.7 hPa | 0 mm | - | - | - |
| 1777189558 | 0.56° C | 92% | 1016.7 hPa | 0 mm | - | - | - |
| 1777189291 | 0.56° C | 92% | 1016.7 hPa | 0 mm | - | - | - |
| 1777189200 | 0.56° C | 92% | 1016.9 hPa | 0 mm | - | - | - |
| 1777188390 | 0.56° C | 92% | 1016.9 hPa | 0 mm | - | - | - |
| 1777187490 | 1.11° C | 92% | 1016.9 hPa | 0 mm | - | - | - |
| 1777186591 | 1.11° C | 92% | 1017.1 hPa | 0 mm | - | - | - |
| 1777185859 | 1.11° C | 91% | 1017.1 hPa | 0 mm | - | - | - |
| 1777185691 | 1.11° C | 91% | 1017.1 hPa | 0 mm | - | - | - |
| 1777184790 | 1.11° C | 91% | 1017.4 hPa | 0 mm | - | - | - |
| 1777183890 | 1.67° C | 90% | 1017.1 hPa | 0 mm | - | - | - |
| 1777183202 | 1.67° C | 90% | 1017 hPa | 0 mm | - | - | - |
| 1777182991 | 1.67° C | 90% | 1017 hPa | 0 mm | - | - | - |
| 1777182091 | 2.22° C | 89% | 1016.9 hPa | 0 mm | - | - | - |
| 1777181193 | 2.22° C | 89% | 1016.8 hPa | 0 mm | - | - | - |
| 1777180290 | 2.22° C | 88% | 1016.6 hPa | 0 mm | - | - | - |
| 1777177591 | 2.78° C | 84% | 1016.7 hPa | 0 mm | - | - | - |
| 1777176691 | 3.33° C | 83% | 1016.6 hPa | 0 mm | - | - | - |
| 1777175791 | 3.33° C | 82% | 1016.3 hPa | 0 mm | - | - | - |
| 1777174892 | 3.33° C | 81% | 1016.3 hPa | 0 mm | - | - | - |
| 1777173991 | 3.89° C | 80% | 1016.2 hPa | 0 mm | - | - | - |
| 1777173346 | 3.89° C | 79% | 1016 hPa | 0 mm | - | - | - |
| 1777173092 | 3.89° C | 79% | 1016 hPa | 0 mm | - | - | - |
| 1777172403 | 4.44° C | 77% | 1015.6 hPa | 0 mm | - | - | - |
* Rain latest hour (hover to see other rain measurements)
** Current wind speed in m/s (hover to see current wind gust speed)